Location: Brownlee
(50.7397°N, 106.0159°W)
Time: 22:31:51
(UTC+00:00)

Tiangong - Visible Passes

Search period start: 26 November 2022 00:00
Search period end: 06 December 2022 00:00
Orbit: 387 x 394 km, 41.5° (Epoch: 26 November)

Date Brightness Start Highest point End Pass type
(mag) Time Alt. Az. Time Alt. Az. Time Alt. Az.
02 Dec 0.7 01:26:54 10° SSW 01:27:30 12° S 01:27:30 12° S visible
03 Dec 0.7 00:30:24 10° SSE 00:30:44 10° SSE 00:31:04 10° SSE visible
04 Dec 0.3 01:07:14 10° SSW 01:09:10 15° S 01:09:26 15° SSE visible
05 Dec 0.5 00:09:49 10° SSW 00:11:24 13° SSE 00:12:59 10° SE visible
05 Dec 0.7 01:45:36 10° SW 01:46:31 14° SSW 01:46:31 14° SSW visible
